This demonstration page uses our WeatherBlox Daily Observations layout. Learn more.

Left ArrowRight Arrow

Hourly Observations for June 28, 2019

Temp ( °F °C ) Dew Point ( °F °C ) Humidity (%) Winds ( mph kmh ) Pressure ( in mb ) Visibility ( mi km ) Precip ( " mm )
12:56 am 00:56 Clear 72 22.2 68 20 87 87 SSW 3 6 29.89 1012 10 16 0.00 0.00
1:56 am 01:56 Clear 69 20.6 67 19.4 93 93 S 10 17 29.90 1013 10 16 0.00 0.00
2:56 am 02:56 Clear 72 22.2 67 19.4 84 84 SSW 7 11 29.89 1012 9 14 0.00 0.00
3:56 am 03:56 Clear 70 21.1 66 18.9 87 87 S 8 13 29.89 1012 10 16 0.00 0.00
4:56 am 04:56 Clear 72 22.2 66 18.9 82 82 SW 12 19 29.90 1013 10 16 0.00 0.00
5:56 am 05:56 Clear 69 20.6 65 18.3 87 87 SW 7 11 29.91 1013 10 16 0.00 0.00
6:56 am 06:56 Sunny 68 20 64 17.8 87 87 SSW 7 11 29.93 1014 10 16 0.00 0.00
7:56 am 07:56 Sunny 73 22.8 64 17.8 74 74 WSW 6 9 29.93 1014 10 16 0.00 0.00
8:56 am 08:56 Sunny 78 25.6 60 15.6 54 54 WSW 8 13 29.94 1014 10 16 0.00 0.00
9:56 am 09:56 Sunny 80 26.7 62 16.7 54 54 WSW 6 9 29.95 1014 10 16 0.00 0.00
10:56 am 10:56 Sunny 83 28.3 65 18.3 55 55 SSE 5 7 29.95 1014 10 16 0.00 0.00
11:56 am 11:56 Sunny 87 30.6 66 18.9 50 50 S 7 11 29.95 1014 10 16 0.00 0.00
12:56 pm 12:56 Sunny 90 32.2 66 18.9 45 45 S 8 13 29.95 1014 10 16 0.00 0.00
1:56 pm 13:56 Sunny 92 33.3 68 20 46 46 S 10 17 29.95 1014 10 16 0.00 0.00
2:56 pm 14:56 Sunny 93 33.9 66 18.9 41 41 SE 8 13 29.95 1014 10 16 0.00 0.00
3:56 pm 15:56 Sunny 95 35 67 19.4 40 40 S 12 19 29.94 1014 10 16 0.00 0.00
4:56 pm 16:56 Sunny 95 35 68 20 41 41 SSE 12 19 29.94 1014 10 16 0.00 0.00
5:56 pm 17:56 Sunny 94 34.4 69 20.6 44 44 SSE 12 19 29.94 1014 10 16 0.00 0.03
6:56 pm 18:56 Sunny 93 33.9 70 21.1 47 47 SE 9 15 29.93 1014 10 16 0.00 0.00
7:56 pm 19:56 Sunny 89 31.7 73 22.8 59 59 ESE 7 11 29.93 1014 10 16 0.00 0.00
8:56 pm 20:56 Sunny 84 28.9 72 22.2 67 67 ESE 8 13 29.94 1014 10 16 0.00 0.00
9:56 pm 21:56 Clear 80 26.7 71 21.7 74 74 SE 8 13 29.95 1014 10 16 0.00 0.00
10:56 pm 22:56 Clear 79 26.1 68 20 69 69 SSE 8 13 29.96 1015 10 16 0.00 0.00
11:56 pm 23:56 Clear 76 24.4 67 19.4 74 74 SE 7 11 29.98 1015 10 16 0.00 0.00

Powered by AerisWeather